National Weather Service United States Department of Commerce


000
ASUS42 KCAE 290610
RWRCAE
REGIONAL WEATHER ROUNDUP
NATIONAL WEATHER SERVICE COLUMBIA SC
200 AM EDT THU OCT 29 2020

NOTE: "FAIR" INDICATES FEW OR NO CLOUDS BELOW 12,000 FEET WITH NO
SIGNIFICANT WEATHER AND/OR OBSTRUCTIONS TO VISIBILITY.

NOT ALL STATIONS ARE QUALITY CONTROLLED BY THE NATIONAL
WEATHER SERVICE. USE DATA WITH CAUTION...ESPECIALLY
DEWPOINT OBSERVATIONS.

SCZ001>056-GAZ040-063>065-077-290700-
...UPSTATE SOUTH CAROLINA...

CITY SKY/WX TMP DP RH WIND PRES REMARKS
ANDERSON CLOUDY 72 69 90 S10 29.88F
6HR MIN TEMP: 70; 6HR MAX TEMP: 74; 6HR PCP: TRACE;

LIBERTY CLOUDY 70 70 100 S10 29.88F
6HR MIN TEMP: 67; 6HR MAX TEMP: 70; 6HR PCP: 0.15;

SPARTANBURG CLOUDY 70 68 94 S6 29.89F
CLEMSON CLOUDY 70 69 97 VRB6 29.88F
6HR MIN TEMP: 67; 6HR MAX TEMP: 70; 6HR PCP: 0.16;

GREENVILLE CLOUDY 72 69 90 S13G21 29.90F
6HR MIN TEMP: 69; 6HR MAX TEMP: 72; 6HR PCP: 0.09;

GREENWOOD CLOUDY 71 70 96 S12G20 29.90F
6HR MIN TEMP: 70; 6HR MAX TEMP: 71;

GREER CLOUDY 70 69 97 S12 29.90F
6HR MIN TEMP: 67; 6HR MAX TEMP: 71; 6HR PCP: 0.01;

ROCK HILL CLOUDY 69 66 90 S6 29.92F
6HR MIN TEMP: 69; 6HR MAX TEMP: 71;

CHESTER CLOUDY 68 68 100 S9 29.93F
LAURENS CLOUDY 70 70 100 S9 29.90F


...CENTRAL SOUTH CAROLINA...

CITY SKY/WX TMP DP RH WIND PRES REMARKS
COLUMBIA APT CLOUDY 72 68 87 S7 29.91F
6HR MIN TEMP: 72; 6HR MAX TEMP: 75;

COLUMBIA OWENS MOCLDY 71 68 90 CALM 29.92F
6HR MIN TEMP: 71; 6HR MAX TEMP: 76;

MCENTIRE ANGB MOCLDY 70 69 98 SE7 29.91F
6HR MIN TEMP: 69; 6HR MAX TEMP: 72;

ORANGEBURG MOCLDY 72 69 90 S7 29.93F
6HR MIN TEMP: 71; 6HR MAX TEMP: 75;

SUMTER SHAW MOCLDY 70 66 88 S5 29.93F
6HR MIN TEMP: 70; 6HR MAX TEMP: 74;

NEWBERRY CLOUDY 72 70 94 S7 29.93F
AIKEN CLOUDY 73 70 91 S10 29.92F
6HR MIN TEMP: 72; 6HR MAX TEMP: 75;

BARNWELL CLOUDY 73 70 88 SE7 29.92F
MANNING FAIR 70 66 88 S5 29.94F
CAMDEN MOCLDY 68 66 94 CALM 29.94F
LANCASTER CLOUDY 68 66 94 SE5 29.93F
WINNSBORO CLOUDY 68 64 88 S6 29.93F FOG


...EASTERN AND COASTAL SOUTH CAROLINA...

CITY SKY/WX TMP DP RH WIND PRES REMARKS
MYRTLE BEACH MOCLDY 73 70 90 S6 29.97F
6HR MIN TEMP: 72; 6HR MAX TEMP: 74;

N MYRTLE BCH MOCLDY 73 70 90 S6 29.96F
6HR MIN TEMP: 73; 6HR MAX TEMP: 74;

CONWAY FAIR 63 63 100 CALM 29.97F
MARION FAIR 68 66 94 S5 29.96F
HARTSVILLE N/A 68 64 88 S5 29.95F
FLORENCE MOCLDY 68 65 90 SE7 29.95F
6HR MIN TEMP: 67; 6HR MAX TEMP: 73;

DARLINGTON MOCLDY 69 66 90 S8 29.95F
6HR MIN TEMP: 69; 6HR MAX TEMP: 73;

CHARLESTON APT PTCLDY 75 72 90 S10 29.95F
6HR MIN TEMP: 73; 6HR MAX TEMP: 76;

MOUNT PLEASANT FAIR 77 73 88 SE9 29.95F
WALTERBORO PTCLDY 72 70 94 SE6 29.95F
BEAUFORT MOCLDY 78 74 87 SE9 29.93F
6HR MIN TEMP: 77; 6HR MAX TEMP: 78;

HILTON HEAD CLOUDY 77 75 94 VRB6G13 29.95F


...EASTERN GEORGIA...

CITY SKY/WX TMP DP RH WIND PRES REMARKS
AUGUSTA BUSH F CLOUDY 75 71 87 SE9 29.88F
6HR MIN TEMP: 74; 6HR MAX TEMP: 78;

AUGUSTA DANIEL CLOUDY 75 70 84 SE9 29.90F
6HR MIN TEMP: 75; 6HR MAX TEMP: 78;

THOMSON CLOUDY 74 72 95 SW9G20 29.88F
6HR MIN TEMP: 73; 6HR MAX TEMP: 74;

WASHINGTON CLOUDY 72 70 94 SE9G16 29.86F
CLAXTON CLOUDY 78 75 88 S5 29.91F
6HR MIN TEMP: 76; 6HR MAX TEMP: 78;

SYLVANIA CLOUDY 75 73 92 S5 29.92F
6HR MIN TEMP: 73; 6HR MAX TEMP: 76;

STATESBORO CLOUDY 75 71 88 S8 29.91F
6HR MIN TEMP: 74; 6HR MAX TEMP: 76;

SAVANNAH CLOUDY 79 75 87 S14 29.93F
6HR MIN TEMP: 78; 6HR MAX TEMP: 79;



...SOUTHERN NORTH CAROLINA...

CITY SKY/WX TMP DP RH WIND PRES REMARKS
CHARLOTTE CLOUDY 69 67 93 S13 29.92F
6HR MIN TEMP: 69; 6HR MAX TEMP: 72; 6HR PCP: 0.06;

MONROE CLOUDY 68 65 90 VRB5 29.93F
6HR MIN TEMP: 68; 6HR MAX TEMP: 71;

WADESBORO MOCLDY 69 64 86 S5 29.93F
6HR MIN TEMP: 68; 6HR MAX TEMP: 71;

ROCKINGHAM MOCLDY 69 64 85 SE5 29.94F
6HR MIN TEMP: 69; 6HR MAX TEMP: 73;

RUTHERFORDTON CLOUDY 68 68 100 S13G18 29.90F
ASHEVILLE LGT RAIN 67 66 97 S14G24 29.91F
6HR MIN TEMP: 64; 6HR MAX TEMP: 67; 6HR PCP: 1.11;


$$